N6EQ Weather Reports


time (UTC)temp
F
wind
direction
speed
knots
gust
knots
rain 1hr
in
rain 24hr
in
rain mn
in
humidity
%
barometer
mb
20260503230037 93 144 15.6 21.7 0.00 0.00 0.00 12 943.7
20260503224524 93 173 13.0 20.9 0.00 0.00 0.00 11 943.9
20260503223021 93 12.2 26.1 0.00 0.00 0.00 11 944.0
20260503221523 93 205 9.6 18.2 0.00 0.00 0.00 12 944.2
20260503220018 93 202 9.6 23.5 0.00 0.00 0.00 12 944.4
20260503214534 93 184 13.9 28.7 0.00 0.00 0.00 12 944.7
20260503213016 94 167 12.2 21.7 0.00 0.00 0.00 12 944.8
20260503211514 93 195 13.0 22.6 0.00 0.00 0.00 13 945.0
20260503210013 94 238 13.0 26.1 0.00 0.00 0.00 14 945.1
20260503204512 93 191 15.6 26.9 0.00 0.00 0.00 15 945.2
20260503203014 93 191 14.8 24.3 0.00 0.00 0.00 16 945.3
20260503201510 92 203 13.0 26.9 0.00 0.00 0.00 16 945.5
20260503200008 92 12.2 17.4 0.00 0.00 0.00 17 945.9
20260503194508 90 11.3 19.1 0.00 0.00 0.00 17 946.3
20260503193002 92 13.0 20.0 0.00 0.00 0.00 17 946.5
20260503191618 91 216 8.7 20.9 0.00 0.00 0.00 16 946.9
20260503190055 90 209 7.0 20.9 0.00 0.00 0.00 16 947.2
20260503184553 89 218 8.7 15.6 0.00 0.00 0.00 15 947.4
20260503183050 88 251 11.3 14.8 0.00 0.00 0.00 15 947.7
20260503181551 87 231 6.1 12.2 0.00 0.00 0.00 15 948.0
20260503180055 86 153 1.7 8.7 0.00 0.00 0.00 14 948.3
20260503174551 85 246 3.5 7.8 0.00 0.00 0.00 13 948.4
20260503173043 85 272 2.6 7.0 0.00 0.00 0.00 12 948.4
20260503171542 86 212 0.9 5.2 0.00 0.00 0.00 12 948.5
20260503081551 77 340 0.0 1.7 0.00 0.00 0.00 13 948.5
20260503071544 80 94 2.6 8.7 0.00 0.00 0.00 12 948.8
20260503054555 80 71 5.2 7.8 0.00 0.00 0.00 12 948.8
20260503053034 80 81 6.1 8.7 0.00 0.00 0.00 12 948.8
20260503051534 80 73 6.1 7.8 0.00 0.00 0.00 12 948.8
20260503050035 80 94 5.2 7.0 0.00 0.00 0.00 12 948.8
20260503044539 80 83 4.3 7.0 0.00 0.00 0.00 12 948.8
20260503043041 80 83 4.3 6.1 0.00 0.00 0.00 12 948.8
20260503041531 80 82 4.3 6.1 0.00 0.00 0.00 11 948.6
20260503040032 81 85 5.2 6.1 0.00 0.00 0.00 11 948.4
20260503034529 81 89 4.3 7.0 0.00 0.00 0.00 11 948.3
20260503033028 82 3.5 5.2 0.00 0.00 0.00 11 948.1
20260503031528 83 0.9 3.5 0.00 0.00 0.00 10 948.1
20260503030034 85 1.7 3.5 0.00 0.00 0.00 10 948.0
20260503024527 86 213 0.0 0.0 0.00 0.00 0.00 10 947.9
20260503023026 87 212 0.0 0.0 0.00 0.00 0.00 10 947.6
20260503021525 88 212 0.0 4.3 0.00 0.00 0.00 10 947.7
20260503020025 89 286 0.9 2.6 0.00 0.00 0.00 9 947.8
20260503014524 89 239 1.7 6.1 0.00 0.00 0.00 9 947.8
20260503013035 90 233 2.6 7.8 0.00 0.00 0.00 8 947.9
20260503011522 90 203 1.7 7.0 0.00 0.00 0.00 9 947.9
20260503010023 90 200 7.8 13.0 0.00 0.00 0.00 9 947.9
20260503004521 90 3.5 7.8 0.00 0.00 0.00 9 948.0
20260503003018 90 219 3.5 9.6 0.00 0.00 0.00 9 948.0
20260503001518 90 244 5.2 10.4 0.00 0.00 0.00 9 948.1
20260503000017 91 215 6.1 9.6 0.00 0.00 0.00 9 948.2
20260502234515 90 238 5.2 12.2 0.00 0.00 0.00 9 948.2
20260502233028 90 236 4.3 11.3 0.00 0.00 0.00 8 948.2
20260502231514 91 206 5.2 11.3 0.00 0.00 0.00 8 948.2